Waarnemingen

Advertentie
Mijn weer
Tholey, Duitsland (10706): temperatuur & dauwpunt: 05.12.2017 23:00:00 - 11.12.2017 23:00:00 (CET)Tholey, Duitsland (10706): temperatuur 5cm & temperatuur -5cm: 05.12.2017 23:00:00 - 11.12.2017 23:00:00 (CET)Tholey, Duitsland (10706): temperatuur -20cm & temperatuur -100cm: 05.12.2017 23:00:00 - 11.12.2017 23:00:00 (CET)Tholey, Duitsland (10706): windsnelheid & windstoten: 05.12.2017 23:00:00 - 11.12.2017 23:00:00 (CET)Tholey, Duitsland (10706): windrichting: 05.12.2017 23:00:00 - 11.12.2017 23:00:00 (CET)Tholey, Duitsland (10706): luchtdruk: 05.12.2017 23:00:00 - 11.12.2017 23:00:00 (CET)Tholey, Duitsland (10706): zicht: 05.12.2017 23:00:00 - 11.12.2017 23:00:00 (CET)Tholey, Duitsland (10706): Zonneschijnduur: 05.12.2017 23:00:00 - 11.12.2017 23:00:00 (CET)Tholey, Duitsland (10706): neerslag: 05.12.2017 23:00:00 - 11.12.2017 23:00:00 (CET)
Datum & Tijd tt [°C] td [°C] tt 5cm [°C] tt -5cm [°C] tt -20cm [°C] tt -100cm [°C] ff [km/u] ff [kn] fx [km/u] fx [kn] dd ppp [hPa] vv [km] sd [min] rr [mm]
11.12.2017 23:00:00 4,2 1,0 3,8 3,9 3,6 6,3 32 17 52 28 WZW 986,4 70 0 0,0
11.12.2017 22:00:00 4,9 2,5 4,4 4,2 3,6 6,3 27 15 46 25 ZW 985,1 70 0 0,0
11.12.2017 21:00:00 5,0 2,8 4,3 4,5 3,5 6,3 34 18 66 36 ZW 983,8 70 0 1,7
11.12.2017 20:00:00 6,9 2,9 6,2 4,5 3,5 6,3 26 14 49 27 ZZW 981,8 70 0 0,0
11.12.2017 19:00:00 7,2 2,8 6,5 4,6 3,4 6,3 26 14 44 24 ZZW 981,6 70 0 0,0
11.12.2017 18:00:00 7,4 3,1 6,6 4,7 3,3 6,3 22 12 47 26 Z 980,6 70 0 0,0
11.12.2017 17:00:00 7,4 3,5 6,7 4,8 3,1 6,3 25 14 42 23 Z 980,6 70 0 0,0
11.12.2017 16:00:00 7,9 4,0 6,9 4,9 3,0 6,2 24 13 38 20 ZZW 979,8 70 0 0,0
11.12.2017 15:00:00 8,0 4,7 7,2 5,0 2,8 6,2 15 8 51 28 Z 978,9 70 0 0,0
11.12.2017 14:00:00 8,7 5,2 7,7 4,9 2,6 6,2 26 14 45 24 ZW 979,3 59 0 0,0
11.12.2017 13:00:00 8,2 7,2 7,6 4,5 2,4 6,2 13 7 51 27 ZZW 978,1 70 0 0,8
11.12.2017 12:00:00 6,9 6,7 6,5 4,0 2,2 6,3 5 3 20 11 ZO 978,3 8 0 1,9
11.12.2017 11:00:00 6,4 6,1 6,0 3,6 2,1 6,3 13 7 23 12 ZZO 979,2 9 0 2,9
11.12.2017 10:00:00 5,4 5,2 5,0 3,2 2,0 6,3 14 7 23 12 OZO 979,9 4,9 0 3,9
11.12.2017 09:00:00 5,1 5,1 4,8 2,9 1,9 6,2 11 6 32 17 O 980,8 3,5 0 5,1
11.12.2017 08:00:00 4,8 4,7 4,4 2,6 1,8 6,2 18 10 27 15 OZO 981,3 2,8 0 5,1
11.12.2017 07:00:00 4,5 4,4 4,1 2,2 1,7 6,3 14 8 19 10 O 981,9 0,2 0 1,3
11.12.2017 06:00:00 4,4 4,2 3,8 1,9 1,7 6,3 10 6 13 7 O 983,2 0,1 0 0,0
11.12.2017 05:00:00 4,7 4,5 3,5 1,7 1,6 6,3 4 2 14 7 ONO 984,5 0,3 0 0,1
11.12.2017 04:00:00 4,4 4,4 3,7 1,4 1,6 6,3 10 6 24 13 WZW 985,7 1,1 0 0,0
11.12.2017 03:00:00 4,3 4,2 3,5 1,1 1,6 6,4 18 10 24 13 WZW 985,4 0,3 0 0,0
11.12.2017 02:00:00 4,1 3,9 3,3 0,8 1,6 6,4 11 6 29 16 W 985,5 7 0 0,0
11.12.2017 01:00:00 4,1 3,6 3,1 0,6 1,6 6,5 15 8 43 23 WZW 986,4 28 0 2,6
11.12.2017 00:00:00 4,1 3,7 3,1 0,5 1,6 6,6 19 10 45 24 W 985,7 21 0 1,0
10.12.2017 23:00:00 4,4 3,4 3,0 0,5 1,6 6,7 35 19 56 30 WZW 984,7 22 0 1,4
10.12.2017 22:00:00 4,7 3,8 2,9 0,5 1,7 6,7 35 19 61 33 ZW 983,8 6 0 0,2
10.12.2017 21:00:00 4,6 3,2 2,4 0,5 1,7 6,7 29 16 46 25 ZW 983,5 17 0 0,4
10.12.2017 20:00:00 4,0 2,8 0,0 0,5 1,7 6,8 24 13 43 23 ZW 984,4 13 0 0,0
10.12.2017 19:00:00 3,0 2,4 0,0 0,5 1,7 6,8 16 9 37 20 WZW 984,9 15 0 0,0
10.12.2017 18:00:00 3,9 2,4 0,0 0,5 1,7 6,8 22 12 38 21 ZW 984,7 38 0 0,1
10.12.2017 17:00:00 3,2 2,8 0,0 0,5 1,7 6,8 20 11 31 17 ZW 984,7 30 0 0,0
10.12.2017 16:00:00 1,1 1,0 0,0 0,5 1,7 6,8 17 9 24 13 WZW 984,4 0,5 0 0,1
10.12.2017 15:00:00 0,4 0,2 0,0 0,4 1,7 6,8 16 9 25 13 WZW 984,3 3,5 0 0,6
10.12.2017 14:00:00 -1,2 -1,8 -0,3 0,4 1,7 6,8 4 2 20 11 W 985,2 3,9 0 2,3
10.12.2017 13:00:00 -2,5 -3,2 -1,6 0,4 1,7 6,8 11 6 25 14 ZO 986,4 1,7 0 1,3
10.12.2017 12:00:00 -3,1 -3,8 -2,3 0,4 1,7 6,8 16 9 35 19 OZO 988,7 2,9 0 1,5
10.12.2017 11:00:00 -2,8 -3,6 -2,5 0,4 1,7 6,8 24 13 35 19 ZO 991,4 3,8 0 1,1
10.12.2017 10:00:00 -2,0 -3,6 -1,8 0,4 1,8 6,8 16 8 26 14 ZO 994,9 3,2 0 0,0
10.12.2017 09:00:00 -1,4 -5,0 -1,6 0,4 1,8 6,8 11 6 24 13 Z 998,0 60 0 0,0
10.12.2017 08:00:00 -1,6 -3,8 -1,8 0,4 1,8 6,8 16 8 24 13 ZZO 1000,5 46 0 0,0
10.12.2017 07:00:00 -1,4 -2,8 -1,4 0,4 1,8 6,8 8 5 19 11 Z 1003,1 16 0 0,0
10.12.2017 06:00:00 -1,5 -2,6 -1,4 0,4 1,8 6,8 12 7 23 12 ZW 1005,2 13 0 0,0
10.12.2017 05:00:00 -1,7 -2,9 -1,6 0,4 1,8 6,8 15 8 26 14 ZW 1006,8 9 0 0,0
10.12.2017 04:00:00 -1,9 -3,3 -1,8 0,5 1,8 6,8 18 10 26 14 ZW 1008,5 15 0 0,0
10.12.2017 03:00:00 -2,0 -3,6 -1,9 0,5 1,8 6,8 17 9 30 16 ZW 1010,2 21 0 0,0
10.12.2017 02:00:00 -1,9 -3,7 -1,8 0,5 1,8 6,8 14 8 28 15 ZW 1011,1 26 0 0,0
10.12.2017 01:00:00 -1,8 -3,9 -1,7 0,5 1,9 6,8 16 8 32 18 ZW 1012,5 28 0 0,0
10.12.2017 00:00:00 -1,6 -3,6 -1,5 0,5 1,9 6,8 21 12 39 21 ZW 1013,7 37 0 0,0
09.12.2017 23:00:00 -1,5 -3,5 -1,5 0,5 1,9 6,8 25 13 36 19 ZW 1014,4 41 0 0,0
09.12.2017 22:00:00 -1,3 -3,3 -1,3 0,5 1,9 6,8 23 12 40 22 WZW 1015,1 41 0 0,0
09.12.2017 21:00:00 -1,1 -3,0 -1,1 0,5 1,9 6,8 22 12 38 20 WZW 1015,7 36 0 0,0
09.12.2017 20:00:00 -1,1 -2,7 -1,1 0,5 1,9 6,8 22 12 34 19 WZW 1016,2 26 0 0,0
09.12.2017 19:00:00 -1,2 -3,0 -1,2 0,5 2,0 6,8 23 12 32 17 WZW 1016,6 23 0 0,0
09.12.2017 18:00:00 -1,4 -3,7 -1,7 0,5 2,0 6,8 18 10 40 22 WZW 1017,0 26 0 0,0
09.12.2017 17:00:00 -1,2 -4,1 -1,5 0,6 2,0 6,8 27 15 38 21 W 1017,3 42 0 0,0
09.12.2017 16:00:00 -1,2 -4,2 -1,4 0,6 2,0 6,8 21 11 36 19 W 1017,3 53 0 0,0
09.12.2017 15:00:00 -1,4 -3,9 -1,3 0,6 2,0 6,8 16 9 30 16 WZW 1017,8 25 0 0,0
09.12.2017 14:00:00 -1,6 -4,2 -1,0 0,6 2,0 6,8 22 12 43 23 W 1018,2 11 0 0,0
09.12.2017 13:00:00 -1,6 -4,7 -1,3 0,6 2,0 6,8 25 14 45 25 W 1018,0 20 0 0,0
09.12.2017 12:00:00 -1,7 -4,8 -1,5 0,6 2,1 6,8 29 16 43 23 W 1018,1 22 38 0,0
09.12.2017 11:00:00 -1,7 -4,1 -0,8 0,6 2,1 6,8 22 12 35 19 WZW 1018,3 10 50 0,0
09.12.2017 10:00:00 -2,1 -4,9 -2,1 0,6 2,1 6,8 21 12 38 20 WZW 1018,2 24 29 0,0
09.12.2017 09:00:00 -2,2 -4,5 -2,3 0,6 2,1 6,8 18 10 29 16 W 1017,9 22 0 0,0
09.12.2017 08:00:00 -2,4 -3,6 -2,4 0,6 2,2 6,8 14 8 41 22 W 1017,6 9 0 0,0
09.12.2017 07:00:00 -2,1 -4,3 -2,2 0,6 2,2 6,8 21 11 34 18 W 1017,3 24 0 0,0
09.12.2017 06:00:00 -2,2 -4,1 -2,5 0,6 2,2 6,8 18 10 40 22 W 1017,1 24 0 0,0
09.12.2017 05:00:00 -2,0 -3,7 -2,1 0,6 2,2 6,8 17 9 24 13 W 1017,0 22 0 0,0
09.12.2017 04:00:00 -2,1 -3,3 -2,3 0,6 2,3 6,8 16 8 30 16 W 1016,9 12 0 0,0
09.12.2017 03:00:00 -1,8 -3,6 -2,3 0,7 2,3 6,8 21 11 36 19 W 1016,6 25 0 0,0
09.12.2017 02:00:00 -1,8 -3,5 -2,8 0,7 2,4 6,8 24 13 36 20 W 1015,9 24 0 0,0
09.12.2017 01:00:00 -1,7 -2,5 -2,5 0,7 2,4 6,8 18 10 26 14 W 1015,8 5 0 0,0
09.12.2017 00:00:00 -1,5 -2,5 -1,6 0,7 2,5 6,8 18 10 24 13 W 1016,3 14 0 0,0
08.12.2017 23:00:00 -1,7 -2,8 -2,5 0,7 2,5 6,8 17 9 25 14 W 1016,1 18 0 0,0
08.12.2017 22:00:00 -1,2 -2,4 -2,6 0,7 2,6 6,8 16 9 39 21 W 1016,1 20 0 0,0
08.12.2017 21:00:00 -0,7 -1,5 -1,4 0,8 2,7 6,8 19 11 27 15 W 1015,4 13 0 0,2
08.12.2017 20:00:00 -0,5 -0,8 -0,6 0,8 2,8 6,8 9 5 21 11 W 1015,5 1,0 0 0,7
08.12.2017 19:00:00 -0,3 -1,8 -0,7 0,9 2,8 6,8 16 9 28 15 W 1014,9 31 0 0,0
08.12.2017 18:00:00 -0,1 -2,0 -0,9 1,0 2,9 6,7 15 8 33 18 W 1014,3 44 0 0,0
08.12.2017 17:00:00 0,5 -1,5 -0,1 1,3 3,0 6,7 19 11 39 21 W 1013,8 53 0 0,0
08.12.2017 16:00:00 0,5 -1,7 0,2 1,6 3,0 6,7 23 12 40 22 W 1013,5 70 0 0,0
08.12.2017 15:00:00 0,8 -1,1 0,9 2,1 3,0 6,7 24 13 46 25 W 1013,1 33 7 0,0
08.12.2017 14:00:00 1,0 -1,1 1,2 1,8 3,1 6,8 26 14 43 23 W 1013,0 30 28 0,0
08.12.2017 13:00:00 0,4 -1,1 0,0 1,5 3,2 6,8 26 14 38 20 W 1013,7 36 18 0,0
08.12.2017 12:00:00 -0,2 -1,0 0,0 1,6 3,3 6,8 11 6 49 26 W 1013,4 70 0 2,7
08.12.2017 11:00:00 1,9 0,8 1,7 2,4 3,3 6,8 18 10 36 20 WZW 1012,8 7 0 0,0
08.12.2017 10:00:00 1,8 0,8 1,9 2,2 3,4 6,8 21 11 34 18 WZW 1013,1 17 0 0,0
08.12.2017 09:00:00 1,4 1,0 1,3 1,9 3,5 6,7 16 9 27 15 W 1013,2 7 0 0,0
08.12.2017 08:00:00 1,4 1,0 1,0 2,2 3,6 6,7 16 9 29 15 W 1012,8 6 0 0,0
08.12.2017 07:00:00 2,0 1,4 1,8 2,5 3,6 6,7 15 8 31 17 W 1012,8 9 0 0,0
08.12.2017 06:00:00 2,9 1,2 1,9 3,1 3,6 6,7 21 12 44 24 W 1012,4 20 0 0,0
08.12.2017 05:00:00 3,2 2,0 2,6 3,2 3,6 6,6 18 10 34 19 W 1012,2 19 0 0,0
08.12.2017 04:00:00 3,8 2,2 2,8 3,7 3,5 6,6 23 12 42 23 W 1011,9 25 0 0,0
08.12.2017 03:00:00 4,9 2,9 3,8 4,3 3,4 6,6 25 14 49 27 WNW 1011,2 46 0 0,3
08.12.2017 02:00:00 5,5 5,1 5,3 4,2 3,3 6,6 28 15 52 28 W 1010,4 28 0 0,3
08.12.2017 01:00:00 5,2 5,0 5,1 3,9 3,2 6,6 35 19 51 28 WZW 1010,2 1,7 0 1,0
08.12.2017 00:00:00 4,7 4,5 4,6 3,7 3,2 6,6 35 19 59 32 WZW 1010,7 2,5 0 1,1
07.12.2017 23:00:00 4,6 4,4 4,4 3,4 3,1 6,5 33 18 55 30 WZW 1011,0 2,6 0 0,9
07.12.2017 22:00:00 4,0 3,5 3,7 3,1 3,1 6,4 29 15 48 26 WZW 1012,1 6 0 3,0
07.12.2017 21:00:00 3,9 3,1 3,4 2,9 3,0 6,5 26 14 37 20 WZW 1012,9 3,5 0 2,6
07.12.2017 20:00:00 3,5 2,5 3,0 2,8 3,0 7,0 22 12 39 21 WZW 1014,0 5 0 1,3
07.12.2017 19:00:00 4,1 0,8 3,7 2,8 3,0 7,0 21 11 35 19 ZW 1014,9 18 0 0,0
07.12.2017 18:00:00 3,7 1,0 2,6 2,7 2,9 7,0 25 14 40 22 ZW 1016,4 13 0 0,1
07.12.2017 17:00:00 4,2 -0,1 3,7 2,8 2,8 7,0 21 11 40 21 ZW 1017,5 25 0 0,0
07.12.2017 16:00:00 4,0 -0,1 3,1 3,0 2,7 7,0 26 14 48 26 WZW 1018,1 22 7 0,0
07.12.2017 15:00:00 4,3 0,1 4,1 3,1 2,5 7,0 30 16 45 24 WZW 1019,3 23 13 0,0
07.12.2017 14:00:00 4,2 0,0 4,8 2,7 2,4 7,0 27 15 47 26 WZW 1020,2 16 49 0,0
07.12.2017 13:00:00 3,0 -0,7 2,9 1,9 2,4 7,0 31 17 49 26 WZW 1021,6 15 44 0,0
07.12.2017 12:00:00 1,9 -0,8 2,2 1,0 2,4 7,0 27 15 42 23 WZW 1022,9 8 32 0,0
07.12.2017 11:00:00 0,5 -0,8 0,6 0,7 2,5 7,0 29 15 40 21 WZW 1024,3 7 0 0,0
07.12.2017 10:00:00 -0,2 -1,1 -0,3 0,7 2,6 7,0 22 12 41 22 WZW 1024,8 7 0 0,0
07.12.2017 09:00:00 -0,9 -1,6 -0,8 0,7 2,6 7,0 22 12 44 24 WZW 1025,4 6 0 0,0
07.12.2017 08:00:00 -1,2 -2,2 -1,1 0,8 2,7 7,0 29 16 44 24 WZW 1025,6 9 0 0,0
07.12.2017 07:00:00 -1,1 -1,5 -0,9 0,8 2,8 7,0 16 9 36 20 WZW 1026,0 3,2 0 0,0
07.12.2017 06:00:00 -1,0 -1,3 -0,8 0,9 2,9 7,0 24 13 34 19 ZW 1026,2 3,4 0 0,0
07.12.2017 05:00:00 -1,1 -1,3 -0,8 1,0 3,0 7,1 18 10 29 16 WZW 1026,9 0,1 0 0,0
07.12.2017 04:00:00 -1,5 -1,7 -1,1 1,1 3,1 7,1 21 11 31 17 ZW 1027,5 0,1 0 0,0
07.12.2017 03:00:00 -0,4 -0,8 -0,4 1,2 3,3 7,1 11 6 22 12 ZZW 1027,7 1,3 0 0,0
07.12.2017 02:00:00 0,6 -0,5 -0,9 1,3 3,4 7,1 8 5 13 7 ZZW 1027,8 6 0 0,0
07.12.2017 01:00:00 0,8 -0,4 -0,7 1,9 3,4 7,1 10 5 21 11 ZZW 1028,8 8 0 0,0
07.12.2017 00:00:00 2,0 0,8 0,9 2,6 3,5 7,1 12 7 18 10 ZZW 1029,3 5 0 0,0
06.12.2017 23:00:00 2,5 1,5 2,0 2,9 3,5 7,1 7 4 14 8 ZW 1030,1 4,3 0 0,0
06.12.2017 22:00:00 2,8 1,8 2,4 3,0 3,5 7,1 4 2 8 5 W 1030,8 5 0 0,0
06.12.2017 21:00:00 2,9 1,9 2,5 3,1 3,5 7,1 5 3 8 4 WZW 1031,5 4,6 0 0,0
06.12.2017 20:00:00 3,0 2,0 2,7 3,2 3,5 7,1 6 3 10 6 WZW 1031,7 4,8 0 0,0
06.12.2017 19:00:00 3,1 2,1 2,7 3,4 3,5 7,1 5 3 9 5 W 1032,0 4,9 0 0,0
06.12.2017 18:00:00 3,3 2,3 3,0 3,6 3,4 7,1 6 3 11 6 WZW 1032,5 5 0 0,0
06.12.2017 17:00:00 3,5 2,6 3,3 3,8 3,4 7,1 7 4 13 7 WZW 1032,8 5 0 0,0
06.12.2017 16:00:00 3,7 2,6 3,7 3,9 3,3 7,1 8 4 14 7 WZW 1032,9 6 0 0,0
06.12.2017 15:00:00 3,7 2,5 3,9 4,0 3,2 7,1 10 5 15 8 WZW 1033,1 6 0 0,0
06.12.2017 14:00:00 3,7 2,6 4,1 3,7 3,1 7,1 11 6 16 9 WZW 1033,5 6 0 0,0
06.12.2017 13:00:00 3,2 2,5 3,5 3,4 3,0 7,1 9 5 17 9 W 1034,4 4,0 0 0,0
06.12.2017 12:00:00 3,0 2,5 3,3 3,1 3,0 7,1 11 6 16 8 WZW 1034,7 2,6 0 0,0
06.12.2017 11:00:00 2,7 2,5 3,0 2,9 2,9 7,1 10 5 16 8 WZW 1035,2 1,5 0 0,0
06.12.2017 10:00:00 2,6 2,5 2,7 2,7 2,9 7,1 10 5 18 10 W 1035,1 1,1 0 0,0
06.12.2017 09:00:00 2,4 2,3 2,5 2,6 2,9 7,1 11 6 21 11 W 1035,0 0,4 0 0,0
06.12.2017 08:00:00 2,4 2,3 2,4 2,6 2,9 7,1 14 7 21 11 W 1035,0 0,7 0 0,0
06.12.2017 07:00:00 2,4 2,3 2,4 2,6 2,9 7,1 13 7 21 11 W 1035,3 0,4 0 0,0
06.12.2017 06:00:00 2,3 2,2 2,4 2,5 2,8 7,2 13 7 22 12 WZW 1035,5 0,2 0 0,0
06.12.2017 05:00:00 2,3 2,1 2,3 2,5 2,8 7,2 14 8 20 11 WZW 1035,7 0,5 0 0,0
06.12.2017 04:00:00 2,3 2,1 2,3 2,5 2,8 7,2 13 7 22 12 W 1036,1 1,1 0 0,0
06.12.2017 03:00:00 2,3 2,0 2,3 2,5 2,8 7,2 16 9 22 12 WZW 1036,3 1,6 0 0,0
06.12.2017 02:00:00 2,3 2,0 2,4 2,5 2,7 7,2 15 8 20 11 WZW 1036,3 1,1 0 0,0
06.12.2017 01:00:00 2,4 2,2 2,4 2,5 2,7 7,2 16 8 22 12 WZW 1036,4 1,4 0 0,0
06.12.2017 00:00:00 2,5 2,3 2,5 2,5 2,7 7,2 15 8 22 12 WZW 1036,7 1,6 0 0,0
05.12.2017 23:00:00 2,5 2,2 2,5 2,5 2,6 7,2 15 8 20 11 WZW 1036,9 1,0 0 0,0

tt = temperatuur
td = dauwpunt
tt 5cm = temperatuur 5cm
tt -5cm = temperatuur -5cm
tt -20cm = temperatuur -20cm
tt -100cm = temperatuur -100cm
ff = windsnelheid
fx = windstoten
dd = windrichting
ppp = luchtdruk
vv = zicht
sd = Zonneschijnduur
rr = neerslag

Weerstations in de omgeving